GLOBALSTAR M088 [+]

Last updated on Fri Dec 29 2023 00:02:56 GMT+0000 (Coordinated Universal Time)

1 37740U 11033B 23361.82669907 -.00000120 00000+0 -89489-4 0 9997 2 37740 51.9717 146.4978 0001210 112.1909 35.4306 12.62269083574533
UTC large
Height (km)
Speed (km/s)
/
Latitude / Longitude
Inclination (degrees)
Orbital Period (minutes)
Azimuth
Elevation
Range (km)
Doppler Factor

Next 0 passes for location: London (51.5072 / 0.1276)

Sorry there are no passes over London.
GLOBALSTAR M088 [+]